NIMIQ 2 (27632 NORAD) Tracking and Keplerian Element Data

This shows tracking and keplerian element data for the satellite.

Feedback or suggestion? Click here.




ElementValue
Catalog27632
NameNIMIQ 2
Epoch Orbit3918
Epoch Day34.66176687
Epoch Year2025
RAAN61.9787
Inclination8.2779
Eccentricity0.0006357
Argument of Perigee248.225
Mean Anonmoly312.9106
Mean Motion1.00271598
Decay Rate-6.6E-07
L11 27632U 02062A 25034.66176687 -.00000066 00000+0 00000+0 0 9992
L22 27632 8.2779 61.9787 0006357 248.2250 312.9106 1.00271598 39183



Live tracking and technical data element details for NIMIQ 2 (NORAD 27632). NIMIQ 2 can be tracked NOW for your location showing map with azimuth and elevation plus other details from your city location.







IsCatalogInMostPopularTable: catalog: 27632, numindb: 509
Update: records affected: 1



GetName: 27632 NIMIQ 2

Hit Count: updated at: Thu, 22 May 2025 02:33:13 GMT